SCP
0 0 0 0 0 0 0 0 0 0 0 0 0 0 -0 0 0 0 0 -0 -0 0 0 -0 -0 -0 -0 -0 -0 -0 -0 -0 -0 -0 -0 -0 -0 -0 -0 -0 -0 -0 -0 -0 -0 -0 -0 -0 -0
0 0 0 0 0 0 0 0 0 0 0 0 0 0 0 0 0 0 0 0 -0 0 0 0 -0 -0 -0 -0 -0 -0 -0 -0 -0 -0 -0 -0 -0 -0 -0 -0 -0 -0 -0 -0 -0 -0 -0 -0 -0
0 0 0 0 0 0 0 0 0 0 0 0 0 0 0 0 0 0 0 0 0 0 0 0 0 -0 -0 -0 -0 -0 0 0 -0 -0 -0 -0 -0 -0 -0 -0 -0 -0 -0 -0 -0 -0 -0 -0 -0
0 0 0 0 0 0 0 0 0 0 0 0 0 0 0 0 0 0 0 0 0 0 0 0 0 0 0 0 0 0 0 0 0 0 0 0 0 0 0 -0 0 0 0 0 0 0 0 0 0
0 0 0 0 0 0 0 0 0 0 0 0 0 0 0 0 -0 0 0 0 0 0 0 0 0 0 0 0 0 0 0 0 0 0 0 0 0 0 0 0 0 0 0 0 0 0 0 0 0
0 0 0 0 0 0 0 0 0 0 0 0 0 0 0 0 -0 -0 0 0 0 0 0 0 0 0 0 0 0 0 0 0 0 0 0 0 0 0 0 0 0 0 0 0 0 0 0 0 0
0 0 0 0 0 0 0 0 0 0 0 0 0 0 0 -0 0 0 0 0 0 -0 0 0 0 0 0 0 0 0 0 0 0 0 0 0 0 0 0 0 0 0 0 0 0 0 0 0 0
0 0 0 0 0 0 0 0 0 0 0 0 0 0 0 0 0 0 0 0 0 0 -0 0 -0 0 0 0 0 0 0 0 0 0 0 0 0 0 0 0 0 0 0 0 0 0 0 0 0
0 0 0 0 0 0 0 0 0 0 0 0 0 0 0 0 0 0 0 0 0 0 0 0 0 0 0 0 0 0 0 0 0 0 0 0 0 0 0 0 0 0 0 0 0 0 0 0 0
0 0 0 0 0 0 0 0 0 0 0 0 0 0 0 0 0 0 0 0 0 0 0 0 0 0 0 0 0 0 0 0 0 0 0 0 0 0 0 0 0 0 0 0 0 0 0 0 0
0 0 0 0 0 0 0 0 0 0 0 0 0 0 0 0 0 0 0 0 0 0 0 0 0 0 0 0 0 0 0 0 0 0 0 0 0 0 0 0 0 0 0 0 0 0 0 0 0
0 0 0 0 0 0 0 0 0 0 0 0 0 0 0 0 0 0 0 0 0 0 0 0 0 0 0 0 0 0 0 0 0 0 0 0 0 0 0 0 0 0 0 0 0 0 0 0 0
0 0 0 0 0 0 0 0 0 0 0 0 0 0 0 0 0 0 0 0 0 0 0 0 0 0 0 0 0 0 0 0 0 0 0 0 0 0 0 0 0 0 0 0 0 0 0 0 0
0 0 0 0 0 0 0 0 0 0 0 0 0 0 0 0 0 0 0 0 0 0 0 0 0 0 0 0 0 0 0 0 0 0 0 0 0 0 0 0 0 0 0 0 0 0 0 0 0
0 0 0 0 0 0 0 0 0 0 0 0 0 0 0 0 0 0 0 0 0 0 0 0 0 0 0 0 0 0 0 0 0 0 0 0 0 0 0 0 0 0 0 0 0 0 0 0 0
0 0 0 0 0 0 0 0 0 0 0 0 0 0 0 0 0 0 0 0 0 0 0 0 0 0 0 0 0 0 0 0 0 0 0 0 0 0 0 0 0 0 0 0 0 0 0 0 0
0 0 0 0 0 0 0 0 0 0 0 0 0 0 0 0 0 0 0 0 0 0 0 0 0 0 0 0 0 0 0 0 0 0 0 0 0 0 0 0 0 0 0 0 0 0 0 0 0
-0 -0 -0 0 0 0 0 0 0 0 0 0 0 0 0 0 0 0 0 0 0 0 0 0 0 0 0 0 0 0 0 0 0 0 0 0 0 0 0 0 0 0 0 0 0 0 0 0 0
-0 -0 -0 -0 -0 -0 -0 0 0 0 0 0 0 0 0 0 0 -0 -0 -0 -0 0 0 0 0 0 0 0 0 0 0 0 0 0 0 0 0 0 0 0 0 0 0 0 0 0 0 0 0
-0 -0 -0 0 -0 -0 -0 0 0 0 0 0 0 0 0 0 -0 -0 -0 -0 -0 -0 -0 -0 -0 0 0 0 0 -0 -0 -0 0 0 0 0 0 0 0 0 0 0 0 0 0 0 0 0 0
-0 -0 0 0 0 -0 0 0 0 0 0 0 0 0 -0 -0 -0 -0 -0 -0 -0 -0 -0 -0 -0 -0 -0 -0 -0 -0 -0 0 0 0 0 0 0 0 0 0 0 0 0 0 0 0 0 0 0
0 0 0 0 0 0 0 0 0 0 0 0 0 0 -0 -0 -0 -0 -0 -0 -0 -0 -0 -0 -0 -0 -0 -0 -0 -0 -0 -0 0 0 0 0 0 0 0 0 0 0 0 0 0 0 0 0 0
-0 -0 -0 0 0 0 0 0 0 0 0 0 0 0 -0 -0 -0 -0 -0 -0 -0 -0 -0 -0 -0 -0 -0 -0 -0 -0 -0 -0 -0 -0 0 0 0 0 0 0 0 0 0 0 0 0 0 0 0
-0 -0 0 0 0 0 0 0 0 0 0 0 0 0 -0 -0 -0 -0 -0 -0 -0 -0 -0 -0 -0 -0 -0 -0 -0 -0 -0 -0 -0 -0 -0 -0 -0 0 0 0 0 0 0 0 0 0 0 0 0
0 0 0 0 0 0 0 0 -0 0 0 0 0 0 -0 -0 -0 -0 -0 -0 -0 -0 -0 -0 -0 -0 -0 -0 -0 -0 -0 -0 -0 -0 -0 -0 -0 -0 0 0 0 0 0 0 0 0 0 0 0
0 0 0 0 0 0 0 0 0 0 0 0 0 0 0 0 -0 -0 -0 -0 -0 -0 -0 -0 -0 -0 -0 -0 -0 -0 -0 -0 -0 -0 -0 -0 -0 -0 -0 -0 -0 -0 0 0 0 0 0 0 0
-0 0 0 0 0 0 0 0 0 0 0 0 0 0 0 0 -0 -0 0 0 0 -0 -0 -0 -0 -0 -0 -0 -0 -0 -0 -0 -0 -0 -0 -0 -0 -0 -0 -0 -0 -0 -0 -0 0 0 0 0 0
0 0 0 0 0 0 0 0 0 0 0 0 0 0 0 0 0 0 0 0 0 0 -0 -0 0 -0 -0 -0 0 0 0 0 -0 -0 -0 -0 -0 -0 -0 -0 -0 -0 -0 -0 -0 0 0 0 0
0 0 0 0 0 0 0 0 0 0 0 0 0 0 0 0 0 0 0 0 0 0 0 0 0 -0 -0 -0 0 0 0 0 0 0 0 -0 -0 -0 -0 -0 -0 -0 -0 -0 -0 -0 0 0 0
0 0 0 0 0 0 0 0 0 0 0 0 0 0 0 0 0 0 0 0 0 0 0 0 0 0 -0 -0 -0 0 0 0 0 0 0 0 0 0 -0 -0 -0 -0 -0 -0 -0 -0 0 0 0
Wind_Speed_500mb
10 9 7 2 6 9 1 1 6 5 3 9 31 39 27 24 10 4 13 15 16 46 42 39 38 35 32 32 32 33 29 25 22 19 15 11 9 8 8 10 12 16 26 27 22 25 24 26 24
14 16 5 4 8 6 6 9 7 9 14 21 26 30 32 12 44 12 11 11 11 40 38 39 40 33 31 29 30 29 24 21 19 15 11 8 7 7 9 10 10 13 20 23 24 25 24 24 23
13 15 7 7 8 5 5 12 16 16 38 13 16 38 20 30 35 14 26 12 17 36 34 36 36 35 29 27 25 23 20 17 14 11 9 8 7 8 10 11 11 14 19 19 23 29 26 24 23
11 4 15 8 11 11 7 19 20 18 18 39 35 18 25 48 20 29 14 7 18 24 35 32 31 28 27 25 23 21 18 15 13 10 7 5 6 8 9 10 10 12 17 23 25 25 24 24 23
19 14 7 7 12 8 11 31 37 27 12 44 18 19 18 54 29 13 11 15 8 2 32 31 28 26 24 23 22 21 18 16 14 11 8 5 6 8 8 11 14 15 17 19 20 21 21 21 21
15 8 5 8 9 10 13 39 19 36 37 38 23 17 24 55 26 20 12 13 7 7 23 28 25 24 24 24 24 23 20 17 15 12 9 8 9 9 10 12 14 16 17 18 18 18 18 18 18
16 6 5 8 14 17 21 26 46 33 52 46 27 11 26 59 47 37 14 17 11 16 23 16 21 23 24 23 24 23 21 19 18 14 11 8 8 10 11 12 12 12 13 14 15 16 17 16 15
17 8 9 4 11 14 33 43 50 54 48 12 28 22 17 54 42 41 16 22 20 23 22 23 23 20 23 23 23 24 23 22 21 19 14 11 10 10 11 12 12 12 13 14 15 16 17 16 14
21 7 13 12 3 12 36 15 44 47 63 82 46 48 31 45 37 29 25 23 20 15 14 22 24 23 24 29 24 30 29 27 26 25 20 17 16 16 16 15 15 14 14 14 15 17 16 15 13
8 8 9 13 8 30 54 57 23 37 70 46 72 66 61 63 58 58 54 53 49 38 22 7 14 18 23 27 30 29 30 31 28 31 28 24 22 22 21 22 20 19 18 18 19 20 20 19 17
7 8 22 18 20 25 40 73 47 13 34 47 48 63 69 73 76 73 67 65 57 45 36 34 20 2 18 29 32 32 35 35 35 34 33 30 29 28 29 29 28 26 25 25 25 25 24 24 23
18 29 26 13 13 10 15 31 61 63 37 35 48 60 70 78 81 79 75 67 67 54 41 41 23 13 11 12 33 35 37 39 39 40 40 38 37 36 36 35 34 32 30 30 30 30 31 30 30
24 33 36 42 41 61 71 51 41 43 32 30 44 60 69 73 74 75 73 70 67 67 64 47 37 26 19 18 9 40 40 42 48 46 47 45 46 44 42 42 41 39 37 37 37 37 37 35 35
23 49 41 32 50 43 63 48 23 33 26 47 57 67 70 73 71 68 76 77 76 71 69 63 52 42 38 18 22 19 14 35 34 52 60 57 55 49 51 50 49 47 44 41 40 42 42 40 40
52 30 42 41 13 18 20 40 28 24 36 52 58 61 66 69 73 78 74 74 75 73 72 69 62 58 42 40 34 29 25 24 20 40 29 65 64 58 56 56 55 54 50 46 46 46 49 49 47
11 11 10 21 29 19 15 15 29 26 40 49 50 51 60 68 66 62 65 66 67 65 70 68 68 60 57 54 45 37 36 32 19 38 42 36 44 56 62 66 61 53 50 53 53 53 52 51 50
17 8 12 8 49 5 15 17 24 28 39 44 43 46 49 61 66 66 63 61 61 64 65 65 66 68 65 57 52 53 41 38 34 33 27 33 20 33 63 69 74 64 60 59 54 57 54 54 55
5 9 13 13 15 36 36 24 21 27 36 37 38 43 49 58 64 64 64 63 62 63 63 65 66 66 67 63 60 53 53 50 45 36 39 35 35 38 33 48 76 75 72 70 66 61 59 66 65
12 10 14 6 4 15 18 19 13 23 32 33 42 46 49 50 51 59 62 63 65 67 69 70 70 74 72 70 73 69 64 58 57 53 46 40 45 44 36 39 42 70 72 77 74 72 70 69 70
15 10 10 1 11 13 15 14 10 15 19 30 35 39 42 46 52 56 59 61 64 67 70 73 73 72 72 70 69 70 69 64 62 58 61 58 51 50 56 47 37 37 63 77 79 87 84 81 78
9 12 5 6 5 13 13 8 7 7 16 24 31 32 34 41 48 52 56 59 63 67 71 70 69 70 69 70 69 67 64 65 66 65 66 67 65 56 50 51 55 45 33 57 80 87 98 93 91
5 6 2 7 6 6 1 6 6 8 6 16 21 27 30 36 45 53 55 57 60 64 68 71 70 69 65 65 69 72 73 74 71 74 73 71 69 69 61 55 57 57 57 39 37 87 92 98 111
1 7 7 4 8 7 8 8 8 9 6 5 10 17 23 32 40 49 53 53 56 61 70 75 71 68 65 63 62 65 67 69 70 70 71 71 72 73 74 71 63 58 54 50 54 29 60 87 111
13 4 10 8 5 6 7 8 6 8 9 8 3 8 19 27 32 40 46 47 50 57 64 73 69 64 66 66 64 64 65 68 72 75 77 76 76 76 77 79 77 72 66 60 58 52 48 42 85
18 11 6 9 8 7 4 6 12 8 6 12 8 3 17 24 36 49 48 45 49 51 59 67 63 64 66 65 64 64 65 65 67 71 77 80 80 79 80 82 85 82 76 69 66 62 54 48 50
10 7 8 6 3 9 12 8 8 10 19 14 5 2 15 30 46 51 52 41 40 44 55 60 55 62 66 66 64 63 63 66 66 67 70 73 79 79 76 79 80 83 79 73 69 68 65 55 52
9 11 6 14 2 6 7 11 1 11 11 14 9 5 14 55 53 60 53 41 33 44 54 52 52 64 67 69 68 65 63 64 68 70 70 72 72 77 80 78 79 81 81 78 71 71 69 65 62
11 8 5 7 4 8 9 11 8 11 15 14 12 15 33 64 62 59 49 37 32 45 49 42 54 68 70 69 65 66 66 66 68 69 70 71 72 75 78 81 81 79 81 80 75 71 69 69 69
8 4 11 9 6 8 2 12 12 7 9 14 13 18 61 61 62 64 53 33 37 44 43 45 58 71 76 73 67 65 66 67 68 71 68 70 74 76 80 82 80 82 80 80 81 71 69 69 69
4 7 7 9 8 2 5 13 5 8 13 8 12 58 57 59 65 58 47 32 40 46 43 50 63 79 75 68 68 69 70 71 71 71 72 71 74 74 79 83 82 79 80 79 80 80 68 68 69
Wind_Direction_500mb
346 335 312 274 61 68 277 179 291 15 61 22 76 87 96 60 40 106 126 35 165 174 173 163 165 167 159 157 160 158 157 155 152 151 151 159 169 177 183 166 164 156 166 146 140 142 154 149 149
330 357 306 106 89 81 279 318 6 7 338 111 74 66 48 53 28 75 81 339 157 183 176 165 170 168 162 159 161 160 160 157 155 155 163 174 193 206 210 199 200 183 183 162 148 156 150 154 159
264 346 354 79 72 37 313 2 299 324 31 71 105 51 46 344 17 0 317 253 156 182 185 171 174 177 174 171 166 167 165 165 167 170 177 183 190 207 209 212 208 190 162 164 159 157 159 164 169
116 272 18 60 101 45 3 310 316 343 31 73 103 66 81 31 14 2 8 151 157 189 191 182 177 182 182 177 178 178 177 180 182 184 187 185 184 183 177 170 163 147 145 148 157 166 172 178 184
86 88 44 85 57 343 358 353 15 48 65 34 64 73 74 30 53 56 52 99 56 164 196 189 186 191 190 188 188 190 194 198 196 197 195 184 165 158 148 137 135 137 138 149 160 170 177 183 191
80 66 125 113 89 14 357 16 17 43 44 28 69 83 52 27 69 60 143 148 124 29 194 195 195 202 201 202 202 202 205 210 211 209 207 192 172 167 156 144 138 134 136 145 152 159 171 179 189
104 81 155 121 101 55 20 14 27 43 28 14 37 49 20 37 51 64 139 149 130 154 165 208 221 212 212 215 212 212 218 221 221 224 229 217 194 178 171 165 160 156 155 155 157 157 157 161 169
96 86 113 12 97 65 357 54 50 48 35 56 50 26 357 5 30 66 133 138 144 146 167 188 204 235 229 222 224 226 229 230 231 230 229 231 224 213 201 194 186 182 176 175 174 171 173 178 187
100 105 154 164 71 80 21 50 54 60 66 56 60 53 25 30 44 97 89 101 102 131 154 183 199 217 225 243 229 249 235 239 238 235 234 235 233 231 222 215 211 205 200 195 192 191 193 199 206
56 118 118 80 97 92 58 47 58 51 36 34 37 46 45 44 49 48 42 34 36 39 51 67 188 219 239 229 238 247 260 250 245 239 238 236 237 237 235 230 227 223 218 217 214 215 214 217 222
49 89 102 76 104 131 85 59 51 56 47 38 33 30 39 44 45 46 43 38 30 27 30 29 33 71 264 244 226 248 260 264 258 251 244 245 241 239 236 235 234 233 230 229 230 232 234 236 241
95 72 84 65 70 91 64 85 63 61 69 56 54 48 45 43 42 41 40 38 34 30 21 22 25 358 279 326 230 238 247 258 253 260 252 246 249 246 244 243 243 242 243 242 242 242 244 244 247
78 77 87 94 80 78 72 78 75 53 51 52 53 50 49 49 46 43 41 38 35 33 28 21 12 13 1 277 286 244 246 247 253 253 252 255 253 251 251 250 250 249 247 245 246 247 249 250 252
116 82 69 108 92 85 76 51 51 36 48 51 50 53 50 47 44 41 38 35 34 32 33 28 20 11 5 352 342 298 267 253 262 255 250 252 259 260 253 252 253 252 250 250 249 252 255 258 257
114 94 61 20 26 133 91 45 55 54 66 64 58 54 51 50 45 38 36 34 31 31 28 29 30 25 16 0 349 352 285 278 278 266 290 249 251 258 261 258 255 257 257 254 251 250 252 251 252
40 50 65 15 9 19 82 58 51 54 66 62 57 52 52 48 45 39 33 29 26 26 24 23 22 26 24 20 16 354 340 333 310 262 272 278 275 252 259 258 255 259 259 259 255 253 251 251 253
21 71 40 32 11 93 73 101 57 56 62 60 53 50 47 44 40 37 35 31 25 21 19 18 15 15 16 18 15 14 9 352 343 322 292 284 303 283 262 258 251 250 254 255 258 256 250 257 252
0 89 61 52 5 67 82 91 65 62 66 63 58 51 46 42 37 35 34 33 30 26 22 18 15 12 9 5 7 10 8 5 2 337 329 298 304 270 286 269 267 251 247 247 249 251 249 255 254
93 80 93 39 64 64 79 88 67 61 62 56 53 50 47 42 38 35 34 32 30 26 22 18 12 11 8 5 0 359 359 358 355 355 358 333 318 301 309 298 285 261 247 249 249 248 245 253 254
51 89 24 338 22 82 114 91 84 66 59 60 50 45 39 34 32 31 28 26 24 21 19 16 14 10 8 6 5 1 357 355 355 352 352 348 340 324 303 307 307 273 273 260 252 248 245 243 248
51 77 356 111 51 51 143 134 139 79 82 66 54 49 42 34 28 24 20 18 16 14 11 8 7 5 4 2 358 354 349 350 346 345 347 348 345 339 330 314 298 301 316 278 268 263 246 243 245
62 30 199 146 107 160 230 267 218 174 108 67 51 43 39 34 27 20 14 14 11 8 5 2 1 360 358 356 356 358 358 356 354 349 346 343 344 345 340 329 321 301 293 300 298 273 269 254 240
241 339 151 115 98 92 343 71 280 152 184 131 58 41 36 28 22 18 13 8 6 5 2 359 359 0 0 358 356 353 350 350 348 346 342 341 341 342 343 339 329 322 308 298 286 306 284 264 250
303 138 48 52 60 39 259 117 256 202 195 146 114 32 25 20 15 10 6 1 359 356 355 355 354 357 358 357 356 354 350 346 343 343 343 342 339 338 338 338 336 332 324 312 299 293 281 281 258
25 45 353 3 14 203 317 36 245 209 158 157 180 22 19 12 8 359 348 348 349 348 350 349 349 351 352 351 351 352 350 348 344 343 341 340 339 337 335 335 335 334 330 321 312 297 290 282 269
24 98 130 215 322 282 325 251 265 189 160 167 193 331 18 8 347 341 339 323 330 337 342 343 348 350 350 347 347 346 346 345 344 342 339 337 335 335 333 331 330 330 331 325 317 309 294 288 283
309 46 144 105 99 39 282 285 37 130 182 206 227 294 342 342 336 335 334 321 315 330 337 341 345 344 342 341 340 339 340 338 338 337 336 335 333 330 329 328 327 326 327 327 321 315 309 291 284
81 142 44 13 44 308 299 280 246 220 222 244 269 302 320 334 336 337 333 319 312 325 335 343 344 345 341 334 332 332 332 332 333 332 332 332 333 333 330 325 324 324 324 325 322 318 312 305 287
357 44 56 111 112 163 283 269 217 239 224 227 257 305 324 329 329 331 327 305 308 320 329 330 335 339 338 332 328 327 326 328 328 329 329 328 329 330 331 329 323 321 322 322 322 316 314 307 299
240 186 123 117 263 199 150 271 262 242 230 224 291 316 324 326 324 325 321 298 305 316 320 329 334 334 331 328 325 326 324 324 325 325 324 324 325 326 328 329 325 319 319 321 320 317 313 311 303
Wind_Speed_850mb
10 9 7 2 6 9 1 1 6 5 3 9 31 39 27 24 10 4 13 15 16 46 42 39 38 35 32 32 32 33 29 25 22 19 15 11 9 8 8 10 12 16 26 27 22 25 24 26 24
14 16 5 4 8 6 6 9 7 9 14 21 26 30 32 12 44 12 11 11 11 40 38 39 40 33 31 29 30 29 24 21 19 15 11 8 7 7 9 10 10 13 20 23 24 25 24 24 23
13 15 7 7 8 5 5 12 16 16 38 13 16 38 20 30 35 14 26 12 17 36 34 36 36 35 29 27 25 23 20 17 14 11 9 8 7 8 10 11 11 14 19 19 23 29 26 24 23
11 4 15 8 11 11 7 19 20 18 18 39 35 18 25 48 20 29 14 7 18 24 35 32 31 28 27 25 23 21 18 15 13 10 7 5 6 8 9 10 10 12 17 23 25 25 24 24 23
19 14 7 7 12 8 11 31 37 27 12 44 18 19 18 54 29 13 11 15 8 2 32 31 28 26 24 23 22 21 18 16 14 11 8 5 6 8 8 11 14 15 17 19 20 21 21 21 21
15 8 5 8 9 10 13 39 19 36 37 38 23 17 24 55 26 20 12 13 7 7 23 28 25 24 24 24 24 23 20 17 15 12 9 8 9 9 10 12 14 16 17 18 18 18 18 18 18
16 6 5 8 14 17 21 26 46 33 52 46 27 11 26 59 47 37 14 17 11 16 23 16 21 23 24 23 24 23 21 19 18 14 11 8 8 10 11 12 12 12 13 14 15 16 17 16 15
17 8 9 4 11 14 33 43 50 54 48 12 28 22 17 54 42 41 16 22 20 23 22 23 23 20 23 23 23 24 23 22 21 19 14 11 10 10 11 12 12 12 13 14 15 16 17 16 14
21 7 13 12 3 12 36 15 44 47 63 82 46 48 31 45 37 29 25 23 20 15 14 22 24 23 24 29 24 30 29 27 26 25 20 17 16 16 16 15 15 14 14 14 15 17 16 15 13
8 8 9 13 8 30 54 57 23 37 70 46 72 66 61 63 58 58 54 53 49 38 22 7 14 18 23 27 30 29 30 31 28 31 28 24 22 22 21 22 20 19 18 18 19 20 20 19 17
7 8 22 18 20 25 40 73 47 13 34 47 48 63 69 73 76 73 67 65 57 45 36 34 20 2 18 29 32 32 35 35 35 34 33 30 29 28 29 29 28 26 25 25 25 25 24 24 23
18 29 26 13 13 10 15 31 61 63 37 35 48 60 70 78 81 79 75 67 67 54 41 41 23 13 11 12 33 35 37 39 39 40 40 38 37 36 36 35 34 32 30 30 30 30 31 30 30
24 33 36 42 41 61 71 51 41 43 32 30 44 60 69 73 74 75 73 70 67 67 64 47 37 26 19 18 9 40 40 42 48 46 47 45 46 44 42 42 41 39 37 37 37 37 37 35 35
23 49 41 32 50 43 63 48 23 33 26 47 57 67 70 73 71 68 76 77 76 71 69 63 52 42 38 18 22 19 14 35 34 52 60 57 55 49 51 50 49 47 44 41 40 42 42 40 40
52 30 42 41 13 18 20 40 28 24 36 52 58 61 66 69 73 78 74 74 75 73 72 69 62 58 42 40 34 29 25 24 20 40 29 65 64 58 56 56 55 54 50 46 46 46 49 49 47
11 11 10 21 29 19 15 15 29 26 40 49 50 51 60 68 66 62 65 66 67 65 70 68 68 60 57 54 45 37 36 32 19 38 42 36 44 56 62 66 61 53 50 53 53 53 52 51 50
17 8 12 8 49 5 15 17 24 28 39 44 43 46 49 61 66 66 63 61 61 64 65 65 66 68 65 57 52 53 41 38 34 33 27 33 20 33 63 69 74 64 60 59 54 57 54 54 55
5 9 13 13 15 36 36 24 21 27 36 37 38 43 49 58 64 64 64 63 62 63 63 65 66 66 67 63 60 53 53 50 45 36 39 35 35 38 33 48 76 75 72 70 66 61 59 66 65
12 10 14 6 4 15 18 19 13 23 32 33 42 46 49 50 51 59 62 63 65 67 69 70 70 74 72 70 73 69 64 58 57 53 46 40 45 44 36 39 42 70 72 77 74 72 70 69 70
15 10 10 1 11 13 15 14 10 15 19 30 35 39 42 46 52 56 59 61 64 67 70 73 73 72 72 70 69 70 69 64 62 58 61 58 51 50 56 47 37 37 63 77 79 87 84 81 78
9 12 5 6 5 13 13 8 7 7 16 24 31 32 34 41 48 52 56 59 63 67 71 70 69 70 69 70 69 67 64 65 66 65 66 67 65 56 50 51 55 45 33 57 80 87 98 93 91
5 6 2 7 6 6 1 6 6 8 6 16 21 27 30 36 45 53 55 57 60 64 68 71 70 69 65 65 69 72 73 74 71 74 73 71 69 69 61 55 57 57 57 39 37 87 92 98 111
1 7 7 4 8 7 8 8 8 9 6 5 10 17 23 32 40 49 53 53 56 61 70 75 71 68 65 63 62 65 67 69 70 70 71 71 72 73 74 71 63 58 54 50 54 29 60 87 111
13 4 10 8 5 6 7 8 6 8 9 8 3 8 19 27 32 40 46 47 50 57 64 73 69 64 66 66 64 64 65 68 72 75 77 76 76 76 77 79 77 72 66 60 58 52 48 42 85
18 11 6 9 8 7 4 6 12 8 6 12 8 3 17 24 36 49 48 45 49 51 59 67 63 64 66 65 64 64 65 65 67 71 77 80 80 79 80 82 85 82 76 69 66 62 54 48 50
10 7 8 6 3 9 12 8 8 10 19 14 5 2 15 30 46 51 52 41 40 44 55 60 55 62 66 66 64 63 63 66 66 67 70 73 79 79 76 79 80 83 79 73 69 68 65 55 52
9 11 6 14 2 6 7 11 1 11 11 14 9 5 14 55 53 60 53 41 33 44 54 52 52 64 67 69 68 65 63 64 68 70 70 72 72 77 80 78 79 81 81 78 71 71 69 65 62
11 8 5 7 4 8 9 11 8 11 15 14 12 15 33 64 62 59 49 37 32 45 49 42 54 68 70 69 65 66 66 66 68 69 70 71 72 75 78 81 81 79 81 80 75 71 69 69 69
8 4 11 9 6 8 2 12 12 7 9 14 13 18 61 61 62 64 53 33 37 44 43 45 58 71 76 73 67 65 66 67 68 71 68 70 74 76 80 82 80 82 80 80 81 71 69 69 69
4 7 7 9 8 2 5 13 5 8 13 8 12 58 57 59 65 58 47 32 40 46 43 50 63 79 75 68 68 69 70 71 71 71 72 71 74 74 79 83 82 79 80 79 80 80 68 68 69
Wind_Direction_850mb
346 335 312 274 61 68 277 179 291 15 61 22 76 87 96 60 40 106 126 35 165 174 173 163 165 167 159 157 160 158 157 155 152 151 151 159 169 177 183 166 164 156 166 146 140 142 154 149 149
330 357 306 106 89 81 279 318 6 7 338 111 74 66 48 53 28 75 81 339 157 183 176 165 170 168 162 159 161 160 160 157 155 155 163 174 193 206 210 199 200 183 183 162 148 156 150 154 159
264 346 354 79 72 37 313 2 299 324 31 71 105 51 46 344 17 0 317 253 156 182 185 171 174 177 174 171 166 167 165 165 167 170 177 183 190 207 209 212 208 190 162 164 159 157 159 164 169
116 272 18 60 101 45 3 310 316 343 31 73 103 66 81 31 14 2 8 151 157 189 191 182 177 182 182 177 178 178 177 180 182 184 187 185 184 183 177 170 163 147 145 148 157 166 172 178 184
86 88 44 85 57 343 358 353 15 48 65 34 64 73 74 30 53 56 52 99 56 164 196 189 186 191 190 188 188 190 194 198 196 197 195 184 165 158 148 137 135 137 138 149 160 170 177 183 191
80 66 125 113 89 14 357 16 17 43 44 28 69 83 52 27 69 60 143 148 124 29 194 195 195 202 201 202 202 202 205 210 211 209 207 192 172 167 156 144 138 134 136 145 152 159 171 179 189
104 81 155 121 101 55 20 14 27 43 28 14 37 49 20 37 51 64 139 149 130 154 165 208 221 212 212 215 212 212 218 221 221 224 229 217 194 178 171 165 160 156 155 155 157 157 157 161 169
96 86 113 12 97 65 357 54 50 48 35 56 50 26 357 5 30 66 133 138 144 146 167 188 204 235 229 222 224 226 229 230 231 230 229 231 224 213 201 194 186 182 176 175 174 171 173 178 187
100 105 154 164 71 80 21 50 54 60 66 56 60 53 25 30 44 97 89 101 102 131 154 183 199 217 225 243 229 249 235 239 238 235 234 235 233 231 222 215 211 205 200 195 192 191 193 199 206
56 118 118 80 97 92 58 47 58 51 36 34 37 46 45 44 49 48 42 34 36 39 51 67 188 219 239 229 238 247 260 250 245 239 238 236 237 237 235 230 227 223 218 217 214 215 214 217 222
49 89 102 76 104 131 85 59 51 56 47 38 33 30 39 44 45 46 43 38 30 27 30 29 33 71 264 244 226 248 260 264 258 251 244 245 241 239 236 235 234 233 230 229 230 232 234 236 241
95 72 84 65 70 91 64 85 63 61 69 56 54 48 45 43 42 41 40 38 34 30 21 22 25 358 279 326 230 238 247 258 253 260 252 246 249 246 244 243 243 242 243 242 242 242 244 244 247
78 77 87 94 80 78 72 78 75 53 51 52 53 50 49 49 46 43 41 38 35 33 28 21 12 13 1 277 286 244 246 247 253 253 252 255 253 251 251 250 250 249 247 245 246 247 249 250 252
116 82 69 108 92 85 76 51 51 36 48 51 50 53 50 47 44 41 38 35 34 32 33 28 20 11 5 352 342 298 267 253 262 255 250 252 259 260 253 252 253 252 250 250 249 252 255 258 257
114 94 61 20 26 133 91 45 55 54 66 64 58 54 51 50 45 38 36 34 31 31 28 29 30 25 16 0 349 352 285 278 278 266 290 249 251 258 261 258 255 257 257 254 251 250 252 251 252
40 50 65 15 9 19 82 58 51 54 66 62 57 52 52 48 45 39 33 29 26 26 24 23 22 26 24 20 16 354 340 333 310 262 272 278 275 252 259 258 255 259 259 259 255 253 251 251 253
21 71 40 32 11 93 73 101 57 56 62 60 53 50 47 44 40 37 35 31 25 21 19 18 15 15 16 18 15 14 9 352 343 322 292 284 303 283 262 258 251 250 254 255 258 256 250 257 252
0 89 61 52 5 67 82 91 65 62 66 63 58 51 46 42 37 35 34 33 30 26 22 18 15 12 9 5 7 10 8 5 2 337 329 298 304 270 286 269 267 251 247 247 249 251 249 255 254
93 80 93 39 64 64 79 88 67 61 62 56 53 50 47 42 38 35 34 32 30 26 22 18 12 11 8 5 0 359 359 358 355 355 358 333 318 301 309 298 285 261 247 249 249 248 245 253 254
51 89 24 338 22 82 114 91 84 66 59 60 50 45 39 34 32 31 28 26 24 21 19 16 14 10 8 6 5 1 357 355 355 352 352 348 340 324 303 307 307 273 273 260 252 248 245 243 248
51 77 356 111 51 51 143 134 139 79 82 66 54 49 42 34 28 24 20 18 16 14 11 8 7 5 4 2 358 354 349 350 346 345 347 348 345 339 330 314 298 301 316 278 268 263 246 243 245
62 30 199 146 107 160 230 267 218 174 108 67 51 43 39 34 27 20 14 14 11 8 5 2 1 360 358 356 356 358 358 356 354 349 346 343 344 345 340 329 321 301 293 300 298 273 269 254 240
241 339 151 115 98 92 343 71 280 152 184 131 58 41 36 28 22 18 13 8 6 5 2 359 359 0 0 358 356 353 350 350 348 346 342 341 341 342 343 339 329 322 308 298 286 306 284 264 250
303 138 48 52 60 39 259 117 256 202 195 146 114 32 25 20 15 10 6 1 359 356 355 355 354 357 358 357 356 354 350 346 343 343 343 342 339 338 338 338 336 332 324 312 299 293 281 281 258
25 45 353 3 14 203 317 36 245 209 158 157 180 22 19 12 8 359 348 348 349 348 350 349 349 351 352 351 351 352 350 348 344 343 341 340 339 337 335 335 335 334 330 321 312 297 290 282 269
24 98 130 215 322 282 325 251 265 189 160 167 193 331 18 8 347 341 339 323 330 337 342 343 348 350 350 347 347 346 346 345 344 342 339 337 335 335 333 331 330 330 331 325 317 309 294 288 283
309 46 144 105 99 39 282 285 37 130 182 206 227 294 342 342 336 335 334 321 315 330 337 341 345 344 342 341 340 339 340 338 338 337 336 335 333 330 329 328 327 326 327 327 321 315 309 291 284
81 142 44 13 44 308 299 280 246 220 222 244 269 302 320 334 336 337 333 319 312 325 335 343 344 345 341 334 332 332 332 332 333 332 332 332 333 333 330 325 324 324 324 325 322 318 312 305 287
357 44 56 111 112 163 283 269 217 239 224 227 257 305 324 329 329 331 327 305 308 320 329 330 335 339 338 332 328 327 326 328 328 329 329 328 329 330 331 329 323 321 322 322 322 316 314 307 299
240 186 123 117 263 199 150 271 262 242 230 224 291 316 324 326 324 325 321 298 305 316 320 329 334 334 331 328 325 326 324 324 325 325 324 324 325 326 328 329 325 319 319 321 320 317 313 311 303